Regional Weather Roundup
Issued by NWS

Home | Current Version | Previous Version | Text Only | Print | Product List | Glossary On
Versions: 1 2 3 4 5 6 7 8 9 10 11 12 13 14 15 16 17 18 19 20 21 22 23 24 25 26 27 28 29 30 31 32 33 34 35 36 37 38 39 40 41 42 43 44 45 46 47 48 49 50
000
ASUS43 KDTX 110810
RWRMI
MICHIGAN HOURLY REGIONAL WEATHER ROUNDUP
NATIONAL WEATHER SERVICE DETROIT/PONTIAC MI
400 AM EDT FRI JUL 11 2014

NOTE: "FAIR" INDICATES FEW OR NO CLOUDS BELOW 12,000 FEET WITH NO
SIGNIFICANT WEATHER AND/OR OBSTRUCTION TO VISIBILITY.

MIZ047>049-052>055-059>063-066>070-074>076-081>083-110900-
SOUTHEAST LOWER MICHIGAN

CITY           SKY/WX    TMP DP  RH WIND       PRES   REMARKS
ADRIAN         CLEAR     57  55  93 N3        30.22R
ALMA           CLEAR     52  51  94 CALM      30.22S
ANN ARBOR      CLEAR     59  55  87 NE3       30.21S
BAD AXE        CLEAR     47  46  96 CALM      30.22S
CARO           CLEAR     51  51 100 CALM      30.21S
DETROIT CITY   CLEAR     62  55  77 CALM      30.21F
DETROIT        CLEAR     61  56  83 N5        30.21F
FLINT          CLEAR     58  53  84 S3        30.22R
GROSSE ILE     CLEAR     63  59  88 NE5       30.19F
HILLSDALE      CLEAR     55  55 100 CALM      30.21F
HOWELL         CLEAR     57  56  96 CALM      30.22R

CITY           SKY/WX    TMP DP  RH WIND       PRES   REMARKS
JACKSON        CLEAR     55  53  93 CALM      30.22R
LAMBERTVILLE   CLEAR     59  55  88 CALM      30.20S FOG
LANSING        CLEAR     58  54  86 CALM      30.22S
LAPEER         FAIR      53  52  96 CALM      30.22S
MASON          CLEAR     55  53  94 CALM      30.22S
MONROE         CLEAR     61  57  88 CALM      30.19S
MT. CLEMENS    CLEAR     57  55  93 W2        30.20F
PONTIAC        CLEAR     57  52  83 CALM      30.22R
PORT HOPE        N/A     53  50  89 CALM      30.20S
PORT HURON       N/A     50  50 100 CALM      30.22S FOG
TRI CITIES     CLEAR     59  54  83 S5        30.22S
TROY           CLEAR     59  54  85 CALM      30.23R
SAGINAW HB     CLEAR     55  54  94 CALM      30.21S
$$
MIZ043>046-050>051-056>058-064>065-071>073-077>080-110900-
SOUTHWEST LOWER MICHIGAN

CITY           SKY/WX    TMP DP  RH WIND       PRES   REMARKS
BATTLE CREEK   CLEAR     59  53  80 CALM      30.21F
BENTON HARBOR  CLEAR     52  51  97 E3        30.20S
BIG RAPIDS     CLEAR     52  52 100 W6        30.21S
COLDWATER      CLEAR     57  56  97 CALM      30.20F FOG
FREMONT        FAIR      55  55 100 CALM      30.21R
HOLLAND        CLEAR     57  54  89 CALM      30.21S
GRAND RAPIDS   CLEAR     57  54  89 CALM      30.21S
IONIA          FAIR      55  54  95 CALM      30.21S
KALAMAZOO      CLEAR     55  53  93 CALM      30.21S
LUDINGTON      MOCLDY    52  51  97 CALM      30.20S
MARSHALL       CLEAR     54  54 100 CALM      30.21S
MOUNT PLEASANT CLEAR     53  52  97 CALM      30.21S
MUSKEGON       CLEAR     57  51  80 CALM      30.21R
SOUTH HAVEN    CLEAR     54  54 100 CALM      30.21R
$$
MIZ016>042-110900-
NORTHERN LOWER MICHIGAN

CITY           SKY/WX    TMP DP  RH WIND       PRES   REMARKS
ALPENA         CLEAR     45  43  93 CALM      30.21S
BEAVER ISLAND  PTCLDY    56  51  85 S3        30.17F
BELLAIRE       CLEAR     47  46  95 CALM      30.18F
CADILLAC       CLEAR     45  45  99 CALM      30.20S
CHARLEVOIX     CLEAR     54  51  87 SE5       30.21S
FRANKFORT      PTCLDY    51  47  88 CALM      30.18S
GAYLORD        CLEAR     51  47  86 CALM      30.21S
GRAYLING       CLEAR     45  44  97 CALM      30.21F
HARBOR SPRINGS CLEAR     51  49  93 CALM      30.17F
HOUGHTON LAKE  CLEAR     47  45  93 NE3       30.22S
MANISTEE       PTCLDY    48  46  93 SE3       30.20S
OSCODA         CLEAR     48  45  88 CALM      30.21R
PELLSTON       CLEAR     44  43  96 CALM      30.19S
ROGERS CITY    CLEAR     55  49  81 SW8       30.20S
TRAVERSE CITY  CLEAR     55  50  83 CALM      30.18S
$$
MIZ007>008-015-110900-
EASTERN UPPER MICHIGAN

CITY           SKY/WX    TMP DP  RH WIND       PRES   REMARKS
KINROSS        CLEAR     55  50  82 S7        30.17F
MACKINAC ISLAN CLEAR     56  52  86 S8        30.18S
NEWBERRY       PTCLDY    55  52  91 SW10      30.16S
S. S. MARIE    CLEAR     50  46  86 E5        30.18R
MUNISING         N/A     59  51  75 S8        30.11F
$$
MIZ004>006-011>014-085-110900-
CENTRAL UPPER MICHIGAN

CITY           SKY/WX    TMP DP  RH WIND       PRES   REMARKS
MANISTIQUE     MOCLDY    55  53  93 SE6       30.15F
ESCANABA       MOCLDY    54  52  94 CALM      30.14S
MENOMINEE      MOCLDY    63  48  59 S6        30.12F
SAWYER-GWINN   PTCLDY    56  52  84 S7        30.13S
$$
MIZ001>003-009>011-084-110900-
WESTERN UPPER MICHIGAN

CITY           SKY/WX    TMP DP  RH WIND       PRES   REMARKS
IRON MOUNTAIN  MOCLDY    57  53  86 SE7       30.11F
HOUGHTON       MOCLDY    61  55  81 S7        30.04F
COPPER HARBOR    N/A     66  56  70 W12G17    30.03S
$$

ABBREVIATIONS USED IN REMARKS
   TC - TEMPERATURE IN CELSIUS
  WCI - WIND CHILL INDEX
   HX - HEAT INDEX
  VSB - VISIBILITY




USA.gov is the U.S. government's official web portal to all federal, state and local government web resources and services.